Погода в Токме

Погода в Токме : погода сейчас, прогноз погоды и архив. Всё, что Вы хотите узнать о погоде в Токме!

Хотите узнать прогноз погоды в Токме? Тогда Вам сюда: Погода в Токме

Поиск расширенной информации на нашем сайте:

Другие новости

Новости СМИ2

Главная страница сайта

Новости сайта

03.07.2017

Напоминаем, что на нашем специализированном сайте Метеоцентр.Азия вы можете получить высокодетализированные автоматические прогнозы погоды по пунктам России, СНГ и мира в авиационном формате (включающие направление и скорость ветра, видимость, явления погоды, количество и форму облачности, нижнюю и верхнюю границу облачности).


Погода в Токме - сегодня

Время (UTC), дата Ветер
(°,м/с) 
Видим.   Явления Облачность Т
(°С)
Тd
(°С)
f(%) Тe
(°С)
Pmin
(гПа)
dP
(гПа)
Po
(мм)
O2
(г/м3)
Тmin Tmax R s Состояние
почвы
06 16.10.17 110 (В) 20000 м    10/0 верхняя 
[Cs]
-1.4 -12 44 -1  1027.2  -2.2  729  296           
09 16.10.17 110 (В) 20000 м    10/0 средняя 
[Ac As]
-1.1 -11.4 45 -1  1025.4  -1.8  728  296           
12 16.10.17 110 (В) н/о    10/0 верхняя 
[Cs]
-3 -11.1 54 -3  1023.9  -1.7  727  297    -0.8       
15 16.10.17 070 (В) н/о    10/0 средняя 
[As trans]
-4 -10.8 59 -4  1022.7  -1.4  726  298           
18 16.10.17 тихо ()   н/о    10/0 средняя 
[As trans]
-3.9 -10.6 60 -4  1021.1  -1.5  725  297           
21 16.10.17 тихо ()   н/о    10/0 верхняя 
[Cs]
-4.4 -8.3 74 -4  1019  -2  723  297           
00 17.10.17 тихо ()   20000 м    10/0 верхняя 
[Cs]
-4.9 -7.3 83 -5  1018  1.2  722  297  -5.3      равномерный
сухой снег
100% 
03 17.10.17 тихо ()   2000 м  ливневой дождь  10/10 600 м кучево-дожд. 
[Cb cap]
-1.7 -2.5 94 -2  1016.5  -0.5  722  293           
06 17.10.17 200 (Ю) 10 км  {ливн. осадки}  10/10 600 м кучево-дожд. 
[Cb cap]
+2.1 +1.6 96 +3  1015.3  -0.4  721  288           
09 17.10.17 250 (З) 10 км  слаб. ливневой дождь  10/10 300 м кучево-дожд. 
[Cb cap]
+2.4 +2.1 98 +2  1016  0.7  722  288           
12 17.10.17 290 (З) н/о  в посл. час ливневой снег  10/10 600 м кучево-дожд. 
[Cb cap]
+0 -0.9 94 -2  1019.4  2.8  724  292    +2.6     
15 17.10.17 320 (СЗ) н/о  в посл. час ливневой снег  10/10 600 м кучево-дожд. 
[Cb cap]
-1.7 -4.1 84 -4  1022.5  2.5  726  295           
18 17.10.17 320 (СЗ) н/о  {ливн. осадки}  10/10 600 м кучево-дожд. 
[Cb cap]
-2.2 -5.4 79 -4  1023.4  0.7  726  296           
21 17.10.17 290 (З) н/о  слаб. ливневой снег  10/10 600 м кучево-дожд. 
[Cb cap]
-2.7 -8.4 65 -5  1024.2  0.8  727  297           
00 18.10.17 230 (ЮЗ) 20000 м  {ливн. осадки}  10/10 600 м кучево-дожд. 
[Cb cap]
-3.2 -6.3 79 -5  1024.6  0.1  727  297  -3.4    0.0  <0.5  равномерный
мокрый или
старый снег
100% 
03 18.10.17 270 (З) 10 км  слаб. ливневой снег  9/9 600 м кучево-дожд. 
[Cb cap]
-2.4 -6.4 74 -4  1025.1  0.7  728  296           
06 18.10.17 290 (З) 20000 м  {ливн. осадки}  8/8 600 м 
[Sc]
-1.9 -10.8 51 -4  1024.9  -0.2  728  296           
09 18.10.17 250 (З) 20000 м    8/6 600 м верхняя 
[Sc|Ci fib]
-2.4 -10.6 53 -2  1024.4  -0.5  727  297           
12 18.10.17 тихо ()   н/о    5/0 средняя, верхняя 
[Ac lent|Ci fib]
-7.4 -11.3 74 -7  1025.2  -0.1  727  302    -1.7  0.0     
15 18.10.17 тихо ()   н/о    10/0 средняя, верхняя 
[Ac lent|Cs]
-11.7 -13 90 -12  1026.2  -0.2  727  307           
18 18.10.17 тихо ()   н/о    8/0 средняя, верхняя 
[Ac trans|Ci fib]
-12.4 -13.7 90 -12  1026.1  -0.1  727  308           
21 18.10.17 тихо ()   н/о    ясно 
-17.5 -18.7 90 -18  1027.3  727  314           
00 19.10.17 тихо ()   20000 м    ясно 
-20.5 -21.7 90 -21  1028.9  0.9  728  318  -20.9      <0.5  равномерный
мокрый или
старый снег
100% 
03 19.10.17 тихо ()   20000 м    ясно 
-10.1 -12.9 80 -10  1027.9  1.3  728  306           
06 19.10.17 050 (СВ) 20000 м    ясно 
-6.5 -14.2 54 -6  1027.7  0.6  729  302           
Время (UTC), дата Ветер
(°,м/с) 
Видим.   Явления Облачность Т
(°С)
Тd
(°С)
f(%) Тe
(°С)
Pmin
(гПа)
dP
(гПа)
Po
(мм)
O2
(г/м3)
Тmin Tmax R s Состояние
почвы

Для получения пояснительной информации подведите курсор к названию столбца.

ПОГОДА в Токме - архив

Всё, что Вы хотите узнать о погоде в Токме - удобно и подробно!

Выберите нужную дату (начиная с 1 января 2015* года) и нажмите кнопку "Найти".
Будут отображены архивные сводки погоды по пункту Токма, начиная с указанной даты.


Отображать данные в формате CSV (для использования в таблицах Excel)


Внимание! Наш архив погоды предназначен исключительно для личного некоммерческого использования в познавательных целях. Если Вам необходимы официальные справки о состоянии погоды (для производственных, юридических, коммерческих и т.п. целей), обращайтесь в органы Росгидромета.

*Примечание: данная дата относится к архиву по метеостанциям СССР (Россия, СНГ, Балтия).
Архив по метеостанциям Зарубежной Европы и Азии (кроме Китая) хранится 10 дней, по другим регионам земного шара (Китай, Африка, Америка, Австралия, Океания) - 1 день.

Токма - район местоположения метеостанции


Название, широта, долгота, высота метеостанции:
Токма 58.3°ш. 105.9°д. 435 м над ур. моря [Российская Федерация]

Дополнительная информация

В oтличие oт бoльшинства пoгoдных сайтoв мы публикуем пoдрoбную метеoинфoрмацию в детальнoм прoфессиoнальнoм фoрмате.

Характеристики температуры и влажнoсти вoздуха измеряются на высoте 2 м в тени вдали oт зданий и деревьев.
Скoрoсть ветра измеряется на высoте 10 м (на урoвне рoста челoвека скoрoсть ветра ниже в 1.5-2 раза). Если метеoстанция нахoдится в гoрoде или в лесу, тo скoрoсть ветра занижена на 2-4 м/с пo сравнению с oткрытым местoм. Скoрoсть ветра над акватoриями крупных рек и oзёр, а также на вершинах хoлмoв на 2-5 м/с выше, чем в oбычных услoвиях.
Атмoсфернoе давление в разных тoчках местнoсти мoжет значительнo oтличаться oт давления на метеoстанции, в зависимoсти oт услoвий рельефа (при пoдъёме на 10 м давление пoнижается примернo на 1 мм рт.ст.).